JES3012 SAEZ-SACO

Flight info

Callsign JES3012
Flight time 1h 5m
Altitude 34000
Route ATOVO3A ATOVO UW5 ASISA ASISA1Q
Aircraft A320/M-SDE3FGHIRWY/LB1

Departure

Time 2026-04-30 21:28
Airport Ezeiza International Airport - Ministro Pistarini (SAEZ)

Arrival

Time 2026-04-30 22:33
Airport Ingeniero Aeronáutico Ambrosio L.V. Taravella International Airport (SACO)
Time Latitude Longitude Altitude Speed Heading
2026-04-30 21:00 -34.81639 -58.54357 75 ft 0 kts 11°
2026-04-30 21:16 -34.81651 -58.54360 65 ft 2 kts 11°
2026-04-30 21:16 -34.81668 -58.54364 67 ft 3 kts
2026-04-30 21:16 -34.81686 -58.54363 69 ft 2 kts 348°
2026-04-30 21:17 -34.81703 -58.54357 67 ft 3 kts 323°
2026-04-30 21:17 -34.81716 -58.54343 69 ft 3 kts 297°
2026-04-30 21:17 -34.81718 -58.54339 68 ft 0 kts 289°
2026-04-30 21:20 -34.81716 -58.54346 69 ft 2 kts 289°
2026-04-30 21:20 -34.81709 -58.54372 69 ft 4 kts 288°
2026-04-30 21:21 -34.81704 -58.54416 71 ft 6 kts 266°
2026-04-30 21:21 -34.81708 -58.54480 70 ft 9 kts 266°
2026-04-30 21:21 -34.81762 -58.54645 73 ft 13 kts 242°
2026-04-30 21:22 -34.81777 -58.54757 70 ft 15 kts 276°
2026-04-30 21:22 -34.81697 -58.55205 73 ft 14 kts 282°
2026-04-30 21:23 -34.81710 -58.55299 65 ft 12 kts 236°
2026-04-30 21:23 -34.81746 -58.55334 71 ft 0 kts 203°
2026-04-30 21:25 -34.81747 -58.55335 76 ft 2 kts 203°
2026-04-30 21:26 -34.81865 -58.55294 74 ft 15 kts 147°
2026-04-30 21:26 -34.81926 -58.55227 77 ft 7 kts 114°
2026-04-30 21:27 -34.82024 -58.54674 84 ft 91 kts 102°
2026-04-30 21:27 -34.82200 -58.53691 82 ft 143 kts 102°
2026-04-30 21:27 -34.82446 -58.52404 435 ft 158 kts 103°
2026-04-30 21:28 -34.83779 -58.50126 1510 ft 178 kts 121°
2026-04-30 21:28 -34.84520 -58.48800 1826 ft 200 kts 120°
2026-04-30 21:28 -34.86225 -58.45623 2505 ft 249 kts 118°
2026-04-30 21:29 -34.87135 -58.43719 3039 ft 269 kts 117°
2026-04-30 21:29 -34.91689 -58.39711 5633 ft 290 kts 178°
2026-04-30 21:30 -34.95413 -58.41202 7411 ft 286 kts 225°
2026-04-30 21:31 -34.96810 -58.47658 10004 ft 274 kts 291°
2026-04-30 21:31 -34.94416 -58.51149 11530 ft 281 kts 327°
2026-04-30 21:32 -34.90782 -58.53746 12131 ft 320 kts 327°
2026-04-30 21:32 -34.88853 -58.55144 12777 ft 326 kts 326°
2026-04-30 21:32 -34.86895 -58.56573 13480 ft 329 kts 326°
2026-04-30 21:32 -34.84922 -58.58020 14134 ft 333 kts 326°
2026-04-30 21:33 -34.82935 -58.59481 14778 ft 335 kts 326°
2026-04-30 21:33 -34.78918 -58.62426 16084 ft 339 kts 325°
2026-04-30 21:33 -34.76893 -58.63906 16732 ft 341 kts 325°
2026-04-30 21:34 -34.74858 -58.65396 17384 ft 343 kts 325°
2026-04-30 21:34 -34.70744 -58.68400 18617 ft 347 kts 325°
2026-04-30 21:34 -34.68664 -58.69911 19182 ft 350 kts 324°
2026-04-30 21:35 -34.66567 -58.71435 19748 ft 352 kts 324°
2026-04-30 21:35 -34.64486 -58.72947 20306 ft 354 kts 324°
2026-04-30 21:35 -34.62367 -58.74491 20847 ft 357 kts 324°
2026-04-30 21:35 -34.60233 -58.76051 21346 ft 359 kts 324°
2026-04-30 21:36 -34.58087 -58.77622 21861 ft 362 kts 324°
2026-04-30 21:36 -34.55923 -58.79205 22376 ft 364 kts 324°
2026-04-30 21:37 -34.49327 -58.83993 23850 ft 372 kts 324°
2026-04-30 21:37 -34.47098 -58.85603 24264 ft 374 kts 324°
2026-04-30 21:37 -34.44859 -58.87223 24679 ft 376 kts 324°
2026-04-30 21:37 -34.42605 -58.88854 25087 ft 379 kts 324°
2026-04-30 21:38 -34.40336 -58.90499 25494 ft 381 kts 324°
2026-04-30 21:38 -34.38053 -58.92149 25907 ft 383 kts 324°
2026-04-30 21:38 -34.35758 -58.93803 26305 ft 385 kts 324°
2026-04-30 21:38 -34.33447 -58.95466 26697 ft 388 kts 324°
2026-04-30 21:39 -34.31123 -58.97141 27085 ft 390 kts 324°
2026-04-30 21:39 -34.28788 -58.98826 27471 ft 392 kts 324°
2026-04-30 21:39 -34.26442 -59.00520 27860 ft 394 kts 324°
2026-04-30 21:39 -34.24080 -59.02223 28252 ft 397 kts 324°
2026-04-30 21:40 -34.21698 -59.03935 28640 ft 399 kts 325°
2026-04-30 21:40 -34.19307 -59.05652 29031 ft 401 kts 325°
2026-04-30 21:40 -34.16898 -59.07377 29417 ft 404 kts 325°
2026-04-30 21:40 -34.14475 -59.09105 29791 ft 406 kts 325°
2026-04-30 21:41 -34.12036 -59.10839 30140 ft 408 kts 325°
2026-04-30 21:41 -34.09577 -59.12586 30450 ft 411 kts 325°
2026-04-30 21:41 -34.07158 -59.14418 30771 ft 410 kts 320°
2026-04-30 21:41 -34.05057 -59.16640 31160 ft 405 kts 310°
2026-04-30 21:42 -34.03233 -59.19209 31635 ft 402 kts 307°
2026-04-30 21:42 -34.01444 -59.21799 32094 ft 401 kts 308°
2026-04-30 21:42 -33.99656 -59.24373 32567 ft 400 kts 308°
2026-04-30 21:42 -33.97871 -59.26935 33030 ft 399 kts 308°
2026-04-30 21:43 -33.96091 -59.29487 33509 ft 397 kts 308°
2026-04-30 21:43 -33.94316 -59.32039 33885 ft 397 kts 308°
2026-04-30 21:43 -33.90785 -59.37121 33966 ft 398 kts 308°
2026-04-30 21:44 -33.87155 -59.42341 33960 ft 416 kts 308°
2026-04-30 21:44 -33.83397 -59.47733 33956 ft 422 kts 308°
2026-04-30 21:45 -33.79609 -59.53145 33954 ft 423 kts 308°
2026-04-30 21:45 -33.75847 -59.58519 33959 ft 423 kts 308°
2026-04-30 21:46 -33.72062 -59.63916 33952 ft 422 kts 308°
2026-04-30 21:46 -33.68270 -59.69309 33948 ft 422 kts 308°
2026-04-30 21:47 -33.64477 -59.74693 33949 ft 422 kts 308°
2026-04-30 21:47 -33.60683 -59.80067 33946 ft 422 kts 308°
2026-04-30 21:48 -33.56885 -59.85436 33942 ft 422 kts 308°
2026-04-30 21:48 -33.53090 -59.90798 33939 ft 422 kts 308°
2026-04-30 21:49 -33.49297 -59.96157 33939 ft 422 kts 308°
2026-04-30 21:49 -33.45505 -60.01510 33937 ft 421 kts 308°
2026-04-30 21:50 -33.41709 -60.06857 33932 ft 421 kts 309°
2026-04-30 21:50 -33.37905 -60.12190 33935 ft 421 kts 309°
2026-04-30 21:51 -33.34102 -60.17518 33933 ft 421 kts 309°
2026-04-30 21:51 -33.30306 -60.22832 33926 ft 420 kts 309°
2026-04-30 21:52 -33.26514 -60.28139 33930 ft 420 kts 309°
2026-04-30 21:52 -33.22721 -60.33447 33927 ft 420 kts 309°
2026-04-30 21:53 -33.18927 -60.38741 33924 ft 419 kts 309°
2026-04-30 21:53 -33.15152 -60.43984 33919 ft 419 kts 309°
2026-04-30 21:54 -33.11355 -60.49263 33919 ft 419 kts 309°
2026-04-30 21:54 -33.07565 -60.54534 33917 ft 419 kts 309°
2026-04-30 21:55 -33.03772 -60.59797 33921 ft 418 kts 309°
2026-04-30 21:55 -32.99979 -60.65052 33924 ft 418 kts 309°
2026-04-30 21:56 -32.96184 -60.70297 33920 ft 418 kts 309°
2026-04-30 21:56 -32.92387 -60.75532 33922 ft 417 kts 309°
2026-04-30 21:57 -32.89023 -60.81117 33919 ft 415 kts 300°
2026-04-30 21:57 -32.86108 -60.87050 33925 ft 415 kts 300°
2026-04-30 21:58 -32.83193 -60.92967 33915 ft 415 kts 300°
2026-04-30 21:58 -32.80757 -60.97883 33914 ft 415 kts 300°
2026-04-30 21:59 -32.77330 -61.04785 33912 ft 415 kts 300°
2026-04-30 22:00 -32.72949 -61.13603 33898 ft 415 kts 300°
2026-04-30 22:00 -32.69024 -61.21491 33902 ft 415 kts 300°
2026-04-30 22:01 -32.66102 -61.27343 33900 ft 415 kts 300°
2026-04-30 22:01 -32.63157 -61.33237 33897 ft 415 kts 300°
2026-04-30 22:02 -32.60208 -61.39124 33898 ft 415 kts 300°
2026-04-30 22:02 -32.57259 -61.45011 33889 ft 415 kts 303°
2026-04-30 22:03 -32.54306 -61.50896 33900 ft 415 kts 300°
2026-04-30 22:03 -32.51375 -61.56732 33889 ft 415 kts 300°
2026-04-30 22:04 -32.48415 -61.62610 33896 ft 415 kts 300°
2026-04-30 22:05 -32.43967 -61.71430 33887 ft 416 kts 300°
2026-04-30 22:05 -32.40992 -61.77308 33882 ft 416 kts 300°
2026-04-30 22:06 -32.38013 -61.83183 33881 ft 416 kts 300°
2026-04-30 22:06 -32.33557 -61.91970 33882 ft 417 kts 300°
2026-04-30 22:07 -32.30570 -61.97852 33879 ft 417 kts 300°
2026-04-30 22:07 -32.27578 -62.03738 33891 ft 418 kts 300°
2026-04-30 22:08 -32.24578 -62.09635 33877 ft 418 kts 300°
2026-04-30 22:08 -32.21576 -62.15527 33878 ft 419 kts 300°
2026-04-30 22:09 -32.20094 -62.18426 33883 ft 404 kts 300°
2026-04-30 22:09 -32.18663 -62.21217 33883 ft 392 kts 300°
2026-04-30 22:09 -32.15868 -62.26661 33880 ft 386 kts 300°
2026-04-30 22:10 -32.13095 -62.32079 33869 ft 386 kts 300°
2026-04-30 22:10 -32.10321 -62.37503 33886 ft 386 kts 300°
2026-04-30 22:11 -32.07531 -62.42931 33481 ft 387 kts 300°
2026-04-30 22:11 -32.06147 -62.45617 33226 ft 388 kts 300°
2026-04-30 22:11 -32.04725 -62.48373 32957 ft 389 kts 300°
2026-04-30 22:12 -32.03314 -62.51101 32698 ft 389 kts 300°
2026-04-30 22:12 -32.01928 -62.53786 32436 ft 386 kts 300°
2026-04-30 22:12 -32.00541 -62.56467 32018 ft 381 kts 300°
2026-04-30 22:12 -31.99169 -62.59121 31561 ft 377 kts 300°
2026-04-30 22:13 -31.97811 -62.61747 31107 ft 373 kts 300°
2026-04-30 22:13 -31.96466 -62.64347 30656 ft 370 kts 300°
2026-04-30 22:13 -31.95136 -62.66926 30215 ft 367 kts 300°
2026-04-30 22:13 -31.93818 -62.69478 29734 ft 364 kts 300°
2026-04-30 22:14 -31.92505 -62.72010 29276 ft 360 kts 300°
2026-04-30 22:14 -31.91206 -62.74512 28845 ft 356 kts 300°
2026-04-30 22:14 -31.89920 -62.76983 28416 ft 353 kts 300°
2026-04-30 22:14 -31.88649 -62.79437 27997 ft 350 kts 300°
2026-04-30 22:15 -31.87387 -62.81872 27588 ft 347 kts 300°
2026-04-30 22:15 -31.86133 -62.84288 27180 ft 345 kts 300°
2026-04-30 22:15 -31.84888 -62.86687 26784 ft 342 kts 300°
2026-04-30 22:15 -31.83652 -62.89064 26398 ft 339 kts 300°
2026-04-30 22:16 -31.82423 -62.91420 26015 ft 336 kts 300°
2026-04-30 22:16 -31.81220 -62.93726 25655 ft 333 kts 300°
2026-04-30 22:17 -31.77563 -63.00741 24088 ft 340 kts 300°
2026-04-30 22:17 -31.76329 -63.03106 23640 ft 339 kts 300°
2026-04-30 22:17 -31.73867 -63.07814 22671 ft 336 kts 300°
2026-04-30 22:18 -31.72643 -63.10148 22211 ft 335 kts 300°
2026-04-30 22:18 -31.70215 -63.14775 21316 ft 331 kts 300°
2026-04-30 22:19 -31.67815 -63.19348 20454 ft 327 kts 300°
2026-04-30 22:19 -31.66627 -63.21617 20018 ft 326 kts 300°
2026-04-30 22:19 -31.64396 -63.26280 18982 ft 328 kts 297°
2026-04-30 22:20 -31.63331 -63.28637 18547 ft 326 kts 297°
2026-04-30 22:20 -31.61203 -63.33358 17463 ft 328 kts 297°
2026-04-30 22:20 -31.60128 -63.35713 16968 ft 327 kts 297°
2026-04-30 22:21 -31.59052 -63.38051 16489 ft 325 kts 297°
2026-04-30 22:21 -31.57977 -63.40384 16037 ft 323 kts 296°
2026-04-30 22:21 -31.57213 -63.42842 15585 ft 321 kts 284°
2026-04-30 22:21 -31.56659 -63.45377 15132 ft 320 kts 284°
2026-04-30 22:22 -31.56108 -63.47917 14488 ft 325 kts 284°
2026-04-30 22:22 -31.55551 -63.50502 13936 ft 328 kts 284°
2026-04-30 22:22 -31.55001 -63.53056 13429 ft 327 kts 284°
2026-04-30 22:22 -31.54437 -63.55671 12936 ft 326 kts 285°
2026-04-30 22:23 -31.53884 -63.58237 12441 ft 324 kts 285°
2026-04-30 22:23 -31.53336 -63.60762 11982 ft 323 kts 285°
2026-04-30 22:23 -31.52783 -63.63305 11525 ft 321 kts 285°
2026-04-30 22:23 -31.52233 -63.65837 11068 ft 320 kts 285°
2026-04-30 22:24 -31.51687 -63.68351 10633 ft 318 kts 286°
2026-04-30 22:24 -31.51150 -63.70830 10468 ft 308 kts 286°
2026-04-30 22:24 -31.50632 -63.73216 10343 ft 297 kts 286°
2026-04-30 22:24 -31.50130 -63.75522 10221 ft 287 kts 286°
2026-04-30 22:25 -31.49632 -63.77769 9959 ft 283 kts 287°
2026-04-30 22:25 -31.49129 -63.80000 9628 ft 282 kts 287°
2026-04-30 22:25 -31.48626 -63.82217 9212 ft 279 kts 287°
2026-04-30 22:25 -31.48129 -63.84405 8597 ft 277 kts 287°
2026-04-30 22:26 -31.47144 -63.88735 7434 ft 273 kts 287°
2026-04-30 22:26 -31.46655 -63.90890 7070 ft 273 kts 287°
2026-04-30 22:26 -31.46171 -63.93026 6838 ft 265 kts 287°
2026-04-30 22:27 -31.45718 -63.95043 6720 ft 247 kts 287°
2026-04-30 22:27 -31.45290 -63.96940 6424 ft 238 kts 287°
2026-04-30 22:27 -31.44446 -64.00653 5475 ft 234 kts 287°
2026-04-30 22:28 -31.43626 -64.04312 4553 ft 232 kts 285°
2026-04-30 22:28 -31.43496 -64.06207 4493 ft 237 kts 273°
2026-04-30 22:29 -31.43504 -64.11892 4492 ft 211 kts 272°
2026-04-30 22:29 -31.43504 -64.13575 4436 ft 205 kts 273°
2026-04-30 22:30 -31.40670 -64.18406 3370 ft 178 kts 332°
2026-04-30 22:31 -31.37785 -64.20407 2697 ft 146 kts 334°
2026-04-30 22:32 -31.34915 -64.20765 2103 ft 138 kts
2026-04-30 22:32 -31.33030 -64.20800 1724 ft 134 kts
2026-04-30 22:33 -31.30800 -64.20833 1616 ft 45 kts 359°
2026-04-30 22:33 -31.30344 -64.20866 1619 ft 22 kts 15°
2026-04-30 22:34 -31.30307 -64.20842 1618 ft 5 kts 69°